Keene, NH

8:25 AM EDT on August 20, 2017 (GMT -0400)
Dillant-Hopkins

Weather History for KEEN - October, 2014

Change the Weather History Date:

Monday, October 20, 2014

  Actual Average Record
Temperature  
Mean Temperature 42 °F -  
Max Temperature 55 °F 58 °F 81 °F (1965)
Min Temperature 28 °F 35 °F 17 °F (1972)
Degree Days  
Heating Degree Days 24    
Moisture  
Dew Point 27 °F    
Average Humidity 56    
Maximum Humidity 74    
Minimum Humidity 38    
Precipitation  
Precipitation 0.00 in - - ()
Sea Level Pressure  
Sea Level Pressure 29.99 in    
Wind  
Wind Speed 2 mph (SSW)    
Max Wind Speed 12 mph    
Max Gust Speed 17 mph    
Visibility 10 miles    
Events      
Averages and records for this station are not official NWS values.
T = Trace of Precipitation, MM = Missing Value Source: NWS Daily Summary

Daily Weather History Graph

Daily Weather History Graph

Search for Another Location

Airport or City:

Trip Planner

Search our weather history database for the weather conditions in past years. The results will help you decide how hot, cold, wet, or windy it might be!

Date:

Astronomy

Oct. 20, 2014 Rise Set
Actual Time 7:08 AM EDT 5:58 PM EDT
Civil Twilight 6:39 AM EDT 6:27 PM EDT
Nautical Twilight 6:06 AM EDT 7:00 PM EDT
Astronomical Twilight 5:33 AM EDT 7:33 PM EDT
Moon 3:49 AM EDT 4:23 PM EDT
Length of Visible Light 11h 47m
Length of Day
10h 50m
Waning Crescent, 10% of the Moon is Illuminated
Oct 20
Waning Crescent
Oct 23
New
Oct 30
First Quarter
Nov 6
Full
Nov 14
Last Quarter

Hourly Weather History & Observations

Time (EDT) Temp. Windchill Dew Point Humidity Pressure Visibility Wind Dir Wind Speed Gust Speed Precip Events Conditions
12:15 AM 37.4 °F - 19.4 °F 48% 29.98 in 10.0 mi Calm Calm - N/A   Clear
12:35 AM 35.6 °F - 19.4 °F 52% 29.99 in 10.0 mi Calm Calm - N/A   Clear
12:55 AM 35.6 °F - 19.4 °F 52% 30.00 in 10.0 mi Calm Calm - N/A   Clear
1:15 AM 35.6 °F - 19.4 °F 52% 30.00 in 10.0 mi Calm Calm - N/A   Clear
1:35 AM 33.8 °F - 19.4 °F 56% 30.00 in 10.0 mi Calm Calm - N/A   Clear
1:55 AM 33.8 °F 30.8 °F 19.4 °F 56% 30.00 in 10.0 mi South 3.5 mph - N/A   Clear
2:15 AM 33.8 °F - 21.2 °F 60% 30.00 in 10.0 mi Calm Calm - N/A   Clear
2:35 AM 32.0 °F - 21.2 °F 64% 30.01 in 10.0 mi Calm Calm - N/A   Clear
2:55 AM 32.0 °F - 21.2 °F 64% 30.00 in 10.0 mi Calm Calm - N/A   Clear
3:15 AM 32.0 °F - 21.2 °F 64% 30.00 in 10.0 mi Calm Calm - N/A   Clear
3:35 AM 30.2 °F - 21.2 °F 69% 30.00 in 10.0 mi Calm Calm - N/A   Clear
3:55 AM 30.2 °F - 21.2 °F 69% 30.00 in 10.0 mi Calm Calm - N/A   Clear
4:15 AM 30.2 °F - 21.2 °F 69% 30.00 in 10.0 mi Calm Calm - N/A   Clear
4:35 AM 30.2 °F - 21.2 °F 69% 30.00 in 10.0 mi Calm Calm - N/A   Clear
4:55 AM 30.2 °F - 21.2 °F 69% 30.00 in 10.0 mi Calm Calm - N/A   Clear
5:15 AM 30.2 °F - 21.2 °F 69% 30.00 in 10.0 mi Calm Calm - N/A   Clear
5:35 AM 32.0 °F - 21.2 °F 64% 30.01 in 10.0 mi Calm Calm - N/A   Clear
5:55 AM 30.2 °F - 21.2 °F 69% 30.01 in 10.0 mi Calm Calm - N/A   Clear
6:15 AM 30.2 °F - 21.2 °F 69% 30.01 in 10.0 mi Calm Calm - N/A   Clear
6:35 AM 30.2 °F - 21.2 °F 69% 30.01 in 10.0 mi Calm Calm - N/A   Clear
6:55 AM 30.2 °F 26.7 °F 21.2 °F 69% 30.02 in 10.0 mi South 3.5 mph - N/A   Clear
7:15 AM 28.4 °F - 19.4 °F 69% 30.02 in 10.0 mi Calm Calm - N/A   Clear
7:35 AM 28.4 °F - 19.4 °F 69% 30.03 in 10.0 mi Calm Calm - N/A   Clear
7:55 AM 28.4 °F - 21.2 °F 74% 30.03 in 10.0 mi Calm Calm - N/A   Clear
8:15 AM 30.2 °F - 21.2 °F 69% 30.04 in 10.0 mi Calm Calm - N/A   Mostly Cloudy
8:35 AM 30.2 °F - 21.2 °F 69% 30.03 in 10.0 mi Calm Calm - N/A   Scattered Clouds
8:55 AM 35.6 °F - 24.8 °F 65% 30.04 in 10.0 mi Calm Calm - N/A   Clear
9:15 AM 35.6 °F - 23.0 °F 60% 30.05 in 10.0 mi Calm Calm - N/A   Clear
9:35 AM 35.6 °F - 21.2 °F 56% 30.05 in 10.0 mi Calm Calm - N/A   Clear
9:55 AM 37.4 °F - 24.8 °F 60% 30.05 in 10.0 mi Calm Calm - N/A   Clear
10:15 AM 39.2 °F 35.9 °F 24.8 °F 56% 30.05 in 10.0 mi South 4.6 mph - N/A   Mostly Cloudy
10:35 AM 42.8 °F - 24.8 °F 49% 30.04 in 10.0 mi Calm Calm - N/A   Mostly Cloudy
10:55 AM 44.6 °F - 26.6 °F 49% 30.04 in 10.0 mi Calm Calm - N/A   Clear
11:15 AM 46.4 °F 42.9 °F 26.6 °F 46% 30.03 in 10.0 mi West 6.9 mph - N/A   Clear
11:35 AM 46.4 °F 42.4 °F 26.6 °F 46% 30.02 in 10.0 mi SW 8.1 mph - N/A   Clear
11:55 AM 48.2 °F - 28.4 °F 46% 30.03 in 10.0 mi SSW 9.2 mph - N/A   Clear
12:15 PM 48.2 °F - 28.4 °F 46% 30.02 in 10.0 mi SW 10.4 mph 16.1 mph N/A   Partly Cloudy
12:35 PM 48.2 °F - 28.4 °F 46% 30.00 in 10.0 mi South 9.2 mph - N/A   Mostly Cloudy
12:55 PM 48.2 °F - 28.4 °F 46% 29.99 in 10.0 mi WSW 4.6 mph - N/A   Mostly Cloudy
1:15 PM 50.0 °F - 28.4 °F 43% 29.97 in 10.0 mi South 10.4 mph - N/A   Scattered Clouds
1:35 PM 51.8 °F - 30.2 °F 44% 29.97 in 10.0 mi SSW 9.2 mph - N/A   Clear
1:55 PM 51.8 °F - 28.4 °F 41% 29.97 in 10.0 mi South 8.1 mph - N/A   Partly Cloudy
2:15 PM 51.8 °F - 28.4 °F 41% 29.96 in 10.0 mi SSW 8.1 mph 17.3 mph N/A   Partly Cloudy
2:35 PM 51.8 °F - 30.2 °F 44% 29.96 in 10.0 mi SW 9.2 mph - N/A   Clear
2:55 PM 53.6 °F - 30.2 °F 41% 29.95 in 10.0 mi South 3.5 mph - N/A   Partly Cloudy
3:15 PM 55.4 °F - 30.2 °F 38% 29.95 in 10.0 mi SSW 10.4 mph - N/A   Partly Cloudy
3:35 PM 55.4 °F - 30.2 °F 38% 29.95 in 10.0 mi SSW 11.5 mph - N/A   Partly Cloudy
3:55 PM 55.4 °F - 30.2 °F 38% 29.95 in 10.0 mi SSW 5.8 mph - N/A   Clear
4:15 PM 55.4 °F - 30.2 °F 38% 29.94 in 10.0 mi SW 6.9 mph - N/A   Scattered Clouds
4:35 PM 55.4 °F - 30.2 °F 38% 29.95 in 10.0 mi SW 5.8 mph - N/A   Partly Cloudy
4:55 PM 55.4 °F - 30.2 °F 38% 29.95 in 10.0 mi SW 8.1 mph - N/A   Mostly Cloudy
5:15 PM 53.6 °F - 30.2 °F 41% 29.95 in 10.0 mi SSW 6.9 mph - N/A   Overcast
5:35 PM 53.6 °F - 32.0 °F 44% 29.95 in 10.0 mi South 6.9 mph - N/A   Overcast
5:55 PM 53.6 °F - 30.2 °F 41% 29.95 in 10.0 mi South 5.8 mph - N/A   Overcast
6:15 PM 51.8 °F - 32.0 °F 47% 29.95 in 10.0 mi South 4.6 mph - N/A   Overcast
6:35 PM 51.8 °F - 33.8 °F 50% 29.96 in 10.0 mi South 3.5 mph - N/A   Overcast
6:55 PM 51.8 °F - 32.0 °F 47% 29.96 in 10.0 mi South 3.5 mph - N/A   Overcast
7:15 PM 50.0 °F - 32.0 °F 50% 29.96 in 10.0 mi South 6.9 mph - N/A   Mostly Cloudy
7:35 PM 48.2 °F - 33.8 °F 58% 29.97 in 10.0 mi Calm Calm - N/A   Mostly Cloudy
7:55 PM 48.2 °F - 33.8 °F 58% 29.97 in 10.0 mi Calm Calm - N/A   Mostly Cloudy
8:15 PM 48.2 °F - 32.0 °F 54% 29.98 in 10.0 mi South 3.5 mph - N/A   Overcast
8:35 PM 48.2 °F - 33.8 °F 58% 29.98 in 10.0 mi South 4.6 mph - N/A   Overcast
8:55 PM 48.2 °F - 33.8 °F 58% 29.98 in 10.0 mi Calm Calm - N/A   Mostly Cloudy
9:15 PM 48.2 °F - 33.8 °F 58% 29.98 in 10.0 mi Calm Calm - N/A   Partly Cloudy
9:35 PM 48.2 °F - 33.8 °F 58% 29.98 in 10.0 mi SW 3.5 mph - N/A   Clear
9:55 PM 46.4 °F - 33.8 °F 62% 29.98 in 10.0 mi Calm Calm - N/A   Clear
10:15 PM 46.4 °F - 33.8 °F 62% 29.98 in 10.0 mi Calm Calm - N/A   Clear
10:35 PM 46.4 °F - 33.8 °F 62% 29.98 in 10.0 mi Calm Calm - N/A   Clear
10:55 PM 46.4 °F - 33.8 °F 62% 29.99 in 10.0 mi Calm Calm - N/A   Clear
11:15 PM 46.4 °F - 33.8 °F 62% 29.99 in 10.0 mi Calm Calm - N/A   Clear
11:35 PM 46.4 °F - 33.8 °F 62% 29.98 in 10.0 mi Calm Calm - N/A   Clear
11:55 PM 46.4 °F - 33.8 °F 62% 29.98 in 10.0 mi Calm Calm - N/A   Clear